• In Belgien
  • Länderverzeichnis
  • Für 7 Tage
  • Wassertemperatur
  • Satellitenkarten
  • Wetterkarte
  • Widgets
  • user-avatar
    Anmelden

    Stündliche Wetter Douglasville

    Heute, 14 November, Mittwoch

    Zeit Temperatur Niederschläge Wind Luftdruck Luftfeuchtigkeit
    00:00 +4°C° 0 mm 3 m/S 737 mmHg 89%
    01:00 +4°C° 0.2 mm 3 m/S 737 mmHg 90%
    02:00 +5°C° 0.2 mm 2 m/S 737 mmHg 90%
    03:00 +5°C° 0.2 mm 2 m/S 737 mmHg 90%
    04:00 +6°C° 0.2 mm 2 m/S 737 mmHg 92%
    05:00 +7°C° 0.2 mm 1 m/S 738 mmHg 93%
    06:00 +7°C° 0 mm 1 m/S 738 mmHg 93%
    07:00 +7°C° 0.6 mm 1 m/S 738 mmHg 93%
    08:00 +7°C° 0.6 mm 2 m/S 738 mmHg 93%
    09:00 +8°C° 0.6 mm 2 m/S 738 mmHg 94%
    10:00 +8°C° 0.4 mm 2 m/S 738 mmHg 93%
    11:00 +9°C° 0.4 mm 3 m/S 738 mmHg 92%
    12:00 +8°C° 0.4 mm 4 m/S 738 mmHg 91%
    13:00 +8°C° 0.3 mm 4 m/S 737 mmHg 90%
    14:00 +8°C° 0.3 mm 4 m/S 737 mmHg 90%
    15:00 +8°C° 0.3 mm 5 m/S 736 mmHg 89%
    16:00 +7°C° 0.8 mm 5 m/S 736 mmHg 90%
    17:00 +7°C° 0.8 mm 5 m/S 736 mmHg 90%
    18:00 +7°C° 0.8 mm 5 m/S 736 mmHg 91%
    19:00 +7°C° 1.8 mm 5 m/S 736 mmHg 91%
    20:00 +7°C° 1.8 mm 5 m/S 736 mmHg 91%
    21:00 +7°C° 1.8 mm 5 m/S 736 mmHg 91%
    22:00 +6°C° 1.6 mm 4 m/S 736 mmHg 92%
    23:00 +6°C° 1.6 mm 4 m/S 736 mmHg 92%

    Morgen, 15 November, Donnerstag

    Zeit Temperatur Niederschläge Wind Luftdruck Luftfeuchtigkeit
    00:00 +7°C° 1.6 mm 3 m/S 736 mmHg 93%
    01:00 +7°C° 0.9 mm 3 m/S 735 mmHg 93%
    02:00 +7°C° 0.9 mm 2 m/S 735 mmHg 92%
    03:00 +6°C° 0.9 mm 2 m/S 735 mmHg 92%
    04:00 +6°C° 0.2 mm 2 m/S 734 mmHg 92%
    05:00 +6°C° 0.2 mm 2 m/S 734 mmHg 91%
    06:00 +5°C° 0.2 mm 2 m/S 734 mmHg 91%
    07:00 +5°C° 0.1 mm 2 m/S 734 mmHg 90%
    08:00 +5°C° 0.1 mm 2 m/S 735 mmHg 90%
    09:00 +5°C° 0.1 mm 2 m/S 735 mmHg 89%
    10:00 +5°C° 0 mm 2 m/S 734 mmHg 86%
    11:00 +4°C° 0 mm 3 m/S 734 mmHg 84%
    12:00 +4°C° 0 mm 3 m/S 734 mmHg 81%
    13:00 +4°C° 0 mm 3 m/S 734 mmHg 77%
    14:00 +4°C° 0 mm 4 m/S 733 mmHg 72%
    15:00 +4°C° 0 mm 4 m/S 733 mmHg 68%
    16:00 +3°C° 0 mm 4 m/S 734 mmHg 71%
    17:00 +1°C° 0 mm 4 m/S 734 mmHg 73%
    18:00 0°C° 0 mm 4 m/S 734 mmHg 76%
    19:00 -1°C° 0 mm 4 m/S 735 mmHg 77%
    20:00 -1°C° 0 mm 4 m/S 735 mmHg 77%
    21:00 -1°C° 0 mm 4 m/S 735 mmHg 78%
    22:00 -2°C° 0 mm 4 m/S 735 mmHg 79%
    23:00 -1°C° 0 mm 3 m/S 735 mmHg 80%

    übermorgen, 16 November, Freitag

    Zeit Temperatur Niederschläge Wind Luftdruck Luftfeuchtigkeit
    00:00 -1°C° 0 mm 3 m/S 735 mmHg 81%
    01:00 -1°C° 0 mm 3 m/S 735 mmHg 83%
    02:00 -1°C° 0 mm 3 m/S 735 mmHg 84%
    03:00 -2°C° 0 mm 3 m/S 735 mmHg 85%
    04:00 -1°C° 0 mm 3 m/S 736 mmHg 85%
    05:00 -1°C° 0 mm 3 m/S 736 mmHg 84%
    06:00 -1°C° 0 mm 3 m/S 736 mmHg 83%
    07:00 0°C° 0 mm 3 m/S 736 mmHg 74%
    08:00 +2°C° 0 mm 3 m/S 737 mmHg 66%
    09:00 +4°C° 0 mm 3 m/S 737 mmHg 58%
    10:00 +7°C° 0 mm 3 m/S 737 mmHg 54%
    11:00 +9°C° 0 mm 3 m/S 736 mmHg 50%
    12:00 +11°C° 0 mm 3 m/S 736 mmHg 46%
    13:00 +11°C° 0 mm 3 m/S 735 mmHg 48%
    14:00 +11°C° 0 mm 3 m/S 735 mmHg 50%
    15:00 +12°C° 0 mm 3 m/S 735 mmHg 52%
    16:00 +10°C° 0 mm 2 m/S 735 mmHg 59%
    17:00 +8°C° 0 mm 2 m/S 735 mmHg 66%
    18:00 +7°C° 0 mm 2 m/S 735 mmHg 73%
    19:00 +6°C° 0 mm 2 m/S 735 mmHg 75%
    20:00 +6°C° 0 mm 2 m/S 736 mmHg 78%
    21:00 +5°C° 0 mm 2 m/S 736 mmHg 80%
    22:00 +5°C° 0 mm 2 m/S 736 mmHg 81%
    23:00 +5°C° 0 mm 2 m/S 736 mmHg 82%

    17 November, Samstag

    Zeit Temperatur Niederschläge Wind Luftdruck Luftfeuchtigkeit
    00:00 +4°C° 0 mm 2 m/S 736 mmHg 83%
    01:00 +4°C° 0 mm 2 m/S 736 mmHg 84%
    02:00 +4°C° 0 mm 2 m/S 736 mmHg 85%
    03:00 +5°C° 0 mm 1 m/S 736 mmHg 86%
    04:00 +5°C° 0 mm 1 m/S 736 mmHg 87%
    05:00 +4°C° 0 mm 1 m/S 736 mmHg 87%
    06:00 +4°C° 0 mm 1 m/S 737 mmHg 87%
    07:00 +6°C° 0 mm 1 m/S 737 mmHg 78%
    08:00 +8°C° 0 mm 1 m/S 738 mmHg 70%
    09:00 +11°C° 0 mm 1 m/S 738 mmHg 61%
    10:00 +13°C° 0 mm 1 m/S 738 mmHg 56%
    11:00 +15°C° 0 mm 1 m/S 738 mmHg 50%
    12:00 +16°C° 0 mm 0 m/S 738 mmHg 45%
    13:00 +16°C° 0 mm 0 m/S 737 mmHg 46%
    14:00 +15°C° 0 mm 0 m/S 737 mmHg 47%
    15:00 +16°C° 0 mm 1 m/S 736 mmHg 48%
    16:00 +14°C° 0 mm 1 m/S 737 mmHg 55%
    17:00 +11°C° 0 mm 0 m/S 737 mmHg 61%
    18:00 +9°C° 0 mm 0 m/S 737 mmHg 68%
    19:00 +9°C° 0 mm 0 m/S 737 mmHg 69%
    20:00 +8°C° 0 mm 0 m/S 737 mmHg 71%
    21:00 +8°C° 0 mm 0 m/S 737 mmHg 73%
    22:00 +8°C° 0 mm 0 m/S 737 mmHg 75%
    23:00 +7°C° 0 mm 0 m/S 737 mmHg 76%

    18 November, Sonntag

    Zeit Temperatur Niederschläge Wind Luftdruck Luftfeuchtigkeit
    00:00 +7°C° 0 mm 0 m/S 737 mmHg 78%
    01:00 +7°C° 0 mm 0 m/S 737 mmHg 79%
    02:00 +6°C° 0 mm 0 m/S 737 mmHg 80%
    03:00 +6°C° 0 mm 0 m/S 737 mmHg 82%
    04:00 +6°C° 0 mm 0 m/S 737 mmHg 82%
    05:00 +6°C° 0 mm 0 m/S 737 mmHg 83%
    06:00 +6°C° 0 mm 0 m/S 738 mmHg 84%
    07:00 +8°C° 0 mm 0 m/S 738 mmHg 77%
    08:00 +10°C° 0 mm 0 m/S 738 mmHg 69%
    09:00 +12°C° 0 mm 0 m/S 739 mmHg 62%
    10:00 +14°C° 0 mm 0 m/S 738 mmHg 57%
    11:00 +15°C° 0 mm 0 m/S 738 mmHg 52%
    12:00 +19°C° 0 mm 1 m/S 737 mmHg 47%
    13:00 +19°C° 0 mm 1 m/S 737 mmHg 48%
    14:00 +18°C° 0 mm 1 m/S 737 mmHg 49%
    15:00 +18°C° 0 mm 1 m/S 736 mmHg 49%
    16:00 +15°C° 0 mm 1 m/S 736 mmHg 57%
    17:00 +13°C° 0 mm 1 m/S 736 mmHg 64%
    18:00 +12°C° 0 mm 1 m/S 736 mmHg 71%
    19:00 +11°C° 0 mm 1 m/S 736 mmHg 74%
    20:00 +10°C° 0 mm 1 m/S 737 mmHg 77%
    21:00 +10°C° 0 mm 1 m/S 737 mmHg 79%
    22:00 +9°C° 0 mm 1 m/S 737 mmHg 82%
    23:00 +9°C° 0 mm 1 m/S 737 mmHg 85%

    19 November, Montag

    Zeit Temperatur Niederschläge Wind Luftdruck Luftfeuchtigkeit
    00:00 +8°C° 0 mm 2 m/S 736 mmHg 88%
    01:00 +7°C° 0 mm 2 m/S 736 mmHg 89%
    02:00 +7°C° 0 mm 2 m/S 736 mmHg 90%
    03:00 +7°C° 0 mm 2 m/S 736 mmHg 91%
    04:00 +6°C° 0 mm 2 m/S 736 mmHg 90%
    05:00 +6°C° 0 mm 2 m/S 736 mmHg 90%
    06:00 +6°C° 0 mm 2 m/S 736 mmHg 89%
    07:00 +7°C° 0 mm 2 m/S 737 mmHg 82%
    08:00 +9°C° 0 mm 2 m/S 737 mmHg 74%
    09:00 +10°C° 0 mm 2 m/S 737 mmHg 67%
    10:00 +13°C° 0 mm 2 m/S 737 mmHg 62%
    11:00 +14°C° 0 mm 2 m/S 736 mmHg 57%
    12:00 +16°C° 0 mm 2 m/S 736 mmHg 52%
    13:00 +15°C° 0 mm 2 m/S 736 mmHg 53%
    14:00 +15°C° 0 mm 2 m/S 735 mmHg 55%
    15:00 +15°C° 0 mm 2 m/S 735 mmHg 56%
    16:00 +14°C° 0 mm 2 m/S 735 mmHg 63%
    17:00 +12°C° 0 mm 2 m/S 735 mmHg 70%
    18:00 +10°C° 0 mm 1 m/S 736 mmHg 76%
    19:00 +10°C° 0 mm 1 m/S 736 mmHg 78%
    20:00 +9°C° 0 mm 1 m/S 736 mmHg 80%
    21:00 +9°C° 0 mm 1 m/S 736 mmHg 82%
    22:00 +8°C° 0 mm 1 m/S 736 mmHg 84%
    23:00 +8°C° 0 mm 1 m/S 735 mmHg 85%
    Mehr zeigen